#timestamp,LO_Frequency,Hit,StdDev 
1571907615.3,286046995.9,N
1571907635.2,286046996.3,N
1571907655.9,286046995.7,N
1571907675.7,286046996.3,N
1571907695.6,286046995.6,N
1571907715.4,286046995.1,N
1571907735.2,286046995.0,N
1571907755.1,286046999.3,N
1571907756.0,286046999.3,N
1571907775.8,286046999.6,N
1571907795.6,286046999.6,N
1571907815.5,286046999.3,N
1571907835.3,286046996.6,N
1571907855.1,286046996.5,N
1571907875.9,286046999.6,N
1571907895.7,286046999.6,N
1571907915.5,286046998.8,N
1571907935.4,286046996.7,N
1571907955.2,286046997.7,N
1571907975.0,286046996.6,N
1571907975.9,286046996.6,N
1571907995.8,286046998.8,N
1571908015.6,286046997.4,N
1571908035.4,286046997.6,N
1571908055.3,286046995.3,N
1571908075.1,286046996.1,N
1571908076.0,286046996.1,N
1571908095.8,286046995.5,N
1571908115.7,286046994.9,Y
1571908135.5,286046999.6,P
1571908155.3,286046998.9,N
1571908175.2,286046998.9,N
1571908195.9,286047001.2,N
1571908215.7,286047000.1,N
1571908235.6,286047000.7,N
1571908255.4,286047001.1,N
1571908275.2,286047000.4,N
1571908295.1,286046996.5,N
1571908296.0,286046996.5,N
1571908315.8,286046998.7,N
1571908335.6,286047000.9,N
1571908355.5,286047001.1,N
1571908375.3,286047000.9,N
1571908395.1,286047000.3,N
1571908415.9,286047000.5,N
1571908435.7,286047000.0,N
1571908455.5,286047002.5,N
1571908475.4,286047000.3,N
1571908495.2,286047000.8,N
1571908515.0,286046998.5,N
1571908515.9,286046998.5,N
1571908535.8,286047000.4,N
1571908555.6,286047002.1,N
1571908575.4,286047002.7,N
1571908595.3,286047002.8,N
1571908615.1,286046999.9,N
1571908616.0,286046999.9,N
1571908635.8,286046999.9,N
1571908655.7,286047000.1,N
1571908675.5,286046999.7,N
1571908695.3,286047002.6,N
1571908715.2,286047003.6,N
1571908735.9,286047005.9,Y
1571908755.7,286047006.0,P
1571908775.6,286047004.3,N
1571908795.4,286047005.8,N
1571908815.2,286047003.1,N
1571908835.1,286047001.4,N
1571908836.0,286047001.4,N
1571908855.8,286047002.2,N
1571908875.6,286047000.3,N
1571908895.5,286047001.2,N
1571908915.3,286046999.4,N
1571908935.1,286046998.7,N
1571908955.9,286046998.7,N
1571908975.7,286047001.1,N
1571908995.5,286046998.2,N
1571909015.4,286046998.8,N
1571909035.2,286047000.8,N
1571909055.0,286046999.1,N
1571909055.9,286046999.1,N
1571909075.8,286047001.2,N
1571909095.6,286046998.2,N
1571909115.4,286047000.9,N
1571909135.3,286047002.1,N
1571909155.1,286047001.9,N
1571909156.0,286047001.9,N
1571909175.8,286047001.7,N
1571909195.7,286047003.9,N
1571909215.5,286046999.7,N
1571909235.3,286047000.3,N
1571909255.2,286046999.9,N
1571909275.9,286047002.3,N
1571909295.7,286047004.2,N
1571909315.6,286047001.5,N
1571909335.4,286047000.2,N
1571909355.2,286047001.0,N
1571909375.1,286046998.5,N
1571909376.0,286046998.5,N
1571909395.8,286047000.5,N
1571909415.6,286046998.5,N
1571909435.5,286047000.1,N
1571909455.3,286047000.0,N
1571909475.1,286047000.6,N
1571909495.9,286047001.2,N
1571909515.7,286046998.5,N
1571909535.5,286046998.7,N
1571909555.4,286047000.9,N
1571909575.2,286046998.4,N
1571909595.0,286047000.6,N
1571909595.9,286047000.6,N
1571909615.8,286046999.8,N
1571909635.6,286047002.6,N
1571909655.4,286047002.6,N
1571909675.3,286046999.9,N
1571909695.1,286047002.2,N
1571909696.0,286047002.2,N
1571909715.8,286047002.8,N
1571909735.7,286047002.4,N
1571909755.5,286046998.7,N
1571909775.3,286046998.7,N
1571909795.2,286047000.5,N
1571909815.9,286047000.8,N
1571909835.7,286047000.7,N
1571909855.6,286047001.0,N
1571909875.4,286046998.4,N
1571909895.2,286047000.5,N
1571909915.1,286046998.2,N
1571909916.0,286046998.2,N
1571909935.8,286046993.2,Y
1571909955.6,286046994.7,P
1571909975.5,286046993.9,N
1571909995.3,286046997.7,N
1571910015.1,286046999.4,N
1571910035.9,286047000.1,N
1571910055.7,286047002.1,N
1571910075.5,286047000.8,N
1571910095.4,286047001.0,N
1571910115.2,286046999.4,N
1571910135.0,286046997.3,N
1571910135.9,286046997.3,N
1571910155.8,286046997.9,N
1571910175.6,286046993.8,N
1571910195.4,286046993.9,N
1571910215.3,286046994.2,N
1571910235.1,286046991.8,N
1571910236.0,286046991.8,N
1571910255.8,286046991.3,N
1571910275.7,286046989.4,Y
1571910295.5,286046992.0,P
1571910315.3,286046992.2,P
1571910335.2,286046993.9,N
1571910355.9,286046993.9,Y
1571910375.7,286047000.6,P
1571910395.6,286046999.5,N
1571910415.4,286046997.3,N
1571910435.2,286046995.3,N
1571910455.1,286046995.3,N
1571910456.0,286046995.3,N
1571910475.8,286046996.3,N
1571910495.6,286046993.9,N
1571910515.5,286046993.3,Y
1571910535.3,286046999.2,P
1571910555.1,286046998.9,N
1571910575.9,286046997.1,N
1571910595.7,286046997.2,N
1571910615.5,286046999.4,N
1571910635.4,286046999.5,N
1571910655.2,286046998.3,N
1571910675.0,286046998.3,N
1571910675.9,286046998.3,N
1571910695.8,286046999.0,N
1571910715.6,286047000.8,N
1571910735.4,286047000.0,N
1571910755.3,286046998.2,N
1571910775.1,286046998.6,N
1571910776.0,286046998.6,N
1571910795.8,286046998.9,N
1571910815.7,286046999.5,N
1571910835.5,286046999.6,N
1571910855.3,286046998.4,N
1571910875.2,286046999.6,N
1571910895.9,286046998.5,N
1571910915.7,286046999.0,N
1571910935.6,286046997.0,Y
1571910955.4,286046998.3,P
1571910975.2,286047001.1,P
1571910995.1,286047000.6,N
1571910996.0,286047000.6,N
1571911015.8,286046999.1,N
1571911035.6,286046998.1,N
1571911055.5,286047000.7,N
1571911075.3,286046999.9,N
1571911095.1,286047000.3,N
1571911115.9,286046999.9,N
1571911135.7,286047002.3,N
1571911155.5,286047002.3,N
1571911175.4,286047001.8,N
1571911195.2,286047001.8,N
